Location: Davayat
(45.9471°N, 3.1105°E)
Time: 17:33:24
(UTC+00:00)

USA 238 - Pass Details

Date: 01 December 2020
Orbit: 997 x 1215 km, 63.4° (Epoch: 11 January)

Event Time Altitude Azimuth Distance (km) Brightness Sun altitude
Rises 18:50:38 0° 221° (SW) 3,720 7.1 -28.2°
Reaches altitude 10° 18:53:11 10° 222° (SW) 2,788 6.4 -28.7°
Maximum altitude 18:59:45 79° 309° (NW) 1,063 3.6 -29.8°
Enters shadow 19:00:39 68° 13° (NNE) 1,126 3.6 -29.9°
